World > North America > United States > New York

Hourly Rotterdam, NY Regional Weather

Feedback E-mail the Weather

Latest News

Rotterdam, NY Weather Maps

°F °C°F °C
Rotterdam Weather Map
UTC Time: 5/26/2022, 23:14
Your Time:

Rotterdam, NY Regional Weather

Expires:202205270000;;623272
ASUS41 KALY 262310
RWRALY

NEW YORK STATE HOURLY WEATHER ROUNDUP
NATIONAL WEATHER SERVICE ALBANY NY
700 PM EDT THU MAY 26 2022

NOTE: "FAIR" INDICATES FEW OR NO CLOUDS BELOW 12,000 FEET WITH NO
SIGNIFICANT WEATHER AND/OR NO OBSTRUCTIONS TO VISIBILITY.


NYZ032-033-038>043-046>054-057>066-NYZ062>081-082-084-270000-
EAST

  
CITY           SKY/WX    TMP DP  RH WIND       PRES   REMARKS
ALBANY         PTSUNNY   72  53  51 SE20G26   30.04F                  
GLENS FALLS    CLOUDY    69  53  56 S13       30.02F                  
POUGHKEEPSIE   CLOUDY    68  55  63 S6        30.11F                  
NEWBURGH       CLOUDY    68  57  68 S9        30.12F                  
MONTGOMERY     CLOUDY    66  56  70 S10G18    30.11F                  
WHITE PLAINS   PTSUNNY   66  55  67 S10       30.14F                  
ISLIP          MOSUNNY   64  58  80 S14       30.17F                  
NEW YORK CITY  PTSUNNY   68  56  65 S13       30.14F                  
CENTRAL PARK   MOSUNNY   66  56  70 VRB3      30.17F                  
$$


SKY/WX - Weather  TMP - Temperature  DP - Dew Point  RH - Humidity
WIND - Wind Direction/Speed PRES - Barometric Pressure VSB - Visibility
WCI - Wind Chill Index E13G22 Wind - East Wind 13 mph/Gusts of 22 mph

Trending Headlines

Rotterdam Radar Loop



Rotterdam Quick Facts


National Two Day Weather Forecast


E-mail the Rotterdam Weather Forecast

Voice your opinion or tell us about page issues...